Location: Newark
(30.4994°N, 96.8283°W)
Time: 04:54:32
(UTC+00:00)

Envisat - Pass Details

Date: 29 November 2019
Orbit: 764 x 766 km, 98.1° (Epoch: 12 December)

Event Time Altitude Azimuth Distance (km) Brightness Sun altitude
Rises 00:57:35 0° 180° (S) 3,216 6.4 -19.4°
Reaches altitude 10° 00:59:57 10° 186° (S) 2,293 5.7 -19.9°
Maximum altitude 01:04:49 48° 260° (W) 989 4.0 -20.9°
Drops below altitude 10° 01:09:43 10° 335° (NNW) 2,304 5.6 -21.9°
Sets 01:12:07 0° 341° (NNW) 3,233 6.3 -22.4°
